Time,TemperatureF,DewpointF,PressureIn,WindDirection,WindDirectionDegrees,WindSpeedMPH,WindSpeedGustMPH,Humidity,HourlyPrecipIn,Conditions,Clouds,dailyrainin,SoftwareType,DateUTC
2013-01-21 00:02:00,27.0,24.0,-100.00,WSW,245,2.0,3.0,88,-99.99,,,-99.99,,2013-01-21 08:02:00,
2013-01-21 00:13:00,27.0,24.0,-100.00,WSW,245,2.0,3.0,88,-99.99,,,-99.99,,2013-01-21 08:13:00,
2013-01-21 00:53:00,27.0,24.0,-100.00,NW,310,3.0,5.0,88,-99.99,,,-99.99,,2013-01-21 08:53:00,
2013-01-21 01:02:00,27.0,24.0,-100.00,NW,310,3.0,5.0,88,-99.99,,,-99.99,,2013-01-21 09:02:00,
2013-01-21 01:12:00,27.0,24.0,-100.00,NW,310,3.0,5.0,88,-99.99,,,-99.99,,2013-01-21 09:12:00,
2013-01-21 01:53:00,26.0,24.0,-100.00,NNW,342,5.0,7.0,92,-99.99,,,-99.99,,2013-01-21 09:53:00,
2013-01-21 02:02:00,26.0,24.0,-100.00,NNW,342,5.0,7.0,92,-99.99,,,-99.99,,2013-01-21 10:02:00,
2013-01-21 02:12:00,26.0,24.0,-100.00,NNW,342,5.0,7.0,92,-99.99,,,-99.99,,2013-01-21 10:12:00,
2013-01-21 03:02:00,26.0,24.0,-100.00,NNW,339,3.0,3.0,92,-99.99,,,-99.99,,2013-01-21 11:02:00,
2013-01-21 03:12:00,26.0,24.0,-100.00,NNW,339,3.0,3.0,92,-99.99,,,-99.99,,2013-01-21 11:12:00,
2013-01-21 04:02:00,26.0,24.0,-100.00,NNW,348,3.0,6.0,92,-99.99,,,-99.99,,2013-01-21 12:02:00,
2013-01-21 04:12:00,26.0,24.0,-100.00,NNW,348,3.0,6.0,92,-99.99,,,-99.99,,2013-01-21 12:12:00,
2013-01-21 05:02:00,26.0,24.0,-100.00,North,353,3.0,6.0,92,-99.99,,,-99.99,,2013-01-21 13:02:00,
2013-01-21 05:12:00,26.0,24.0,-100.00,North,353,3.0,6.0,92,-99.99,,,-99.99,,2013-01-21 13:12:00,
2013-01-21 06:03:00,26.0,24.0,-100.00,WSW,258,3.0,5.0,92,-99.99,,,-99.99,,2013-01-21 14:03:00,
2013-01-21 06:12:00,26.0,24.0,-100.00,WSW,258,3.0,5.0,92,-99.99,,,-99.99,,2013-01-21 14:12:00,
2013-01-21 06:53:00,26.0,23.0,-100.00,SSW,213,3.0,5.0,88,-99.99,,,-99.99,,2013-01-21 14:53:00,
2013-01-21 07:03:00,26.0,23.0,-100.00,SSW,213,3.0,5.0,88,-99.99,,,-99.99,,2013-01-21 15:03:00,
2013-01-21 07:13:00,26.0,23.0,-100.00,SSW,213,3.0,5.0,88,-99.99,,,-99.99,,2013-01-21 15:13:00,
2013-01-21 07:53:00,26.0,24.0,-100.00,SW,235,2.0,5.0,92,-99.99,,,-99.99,,2013-01-21 15:53:00,
2013-01-21 08:03:00,26.0,24.0,-100.00,SW,235,2.0,5.0,92,-99.99,,,-99.99,,2013-01-21 16:03:00,
2013-01-21 08:12:00,26.0,24.0,-100.00,SW,235,2.0,5.0,92,-99.99,,,-99.99,,2013-01-21 16:12:00,
2013-01-21 10:03:00,25.0,23.0,-100.00,NW,304,3.0,6.0,91,-99.99,,,-99.99,,2013-01-21 18:03:00,
2013-01-21 10:12:00,25.0,23.0,-100.00,NW,304,3.0,6.0,91,-99.99,,,-99.99,,2013-01-21 18:12:00,
2013-01-21 12:03:00,26.0,23.0,-100.00,NW,314,3.0,6.0,88,-99.99,,,-99.99,,2013-01-21 20:03:00,
2013-01-21 12:12:00,26.0,23.0,-100.00,NW,314,3.0,6.0,88,-99.99,,,-99.99,,2013-01-21 20:12:00,
2013-01-21 13:03:00,26.0,23.0,-100.00,West,266,3.0,6.0,88,-99.99,,,-99.99,,2013-01-21 21:03:00,
2013-01-21 13:12:00,26.0,23.0,-100.00,West,266,3.0,6.0,88,-99.99,,,-99.99,,2013-01-21 21:12:00,
2013-01-21 14:53:00,26.0,23.0,-100.00,NNW,347,3.0,8.0,88,-99.99,,,-99.99,,2013-01-21 22:53:00,
2013-01-21 15:03:00,26.0,23.0,-100.00,NNW,347,3.0,8.0,88,-99.99,,,-99.99,,2013-01-21 23:03:00,
2013-01-21 15:12:00,26.0,23.0,-100.00,NNW,347,3.0,8.0,88,-99.99,,,-99.99,,2013-01-21 23:12:00,
2013-01-21 16:02:00,26.0,23.0,-100.00,NW,326,3.0,6.0,88,-99.99,,,-99.99,,2013-01-22 00:02:00,
2013-01-21 16:12:00,26.0,23.0,-100.00,NW,326,3.0,6.0,88,-99.99,,,-99.99,,2013-01-22 00:12:00,
2013-01-21 17:02:00,26.0,23.0,-100.00,NE,56,3.0,5.0,88,-99.99,,,-99.99,,2013-01-22 01:02:00,
2013-01-21 17:12:00,26.0,23.0,-100.00,NE,56,3.0,5.0,88,-99.99,,,-99.99,,2013-01-22 01:12:00,
2013-01-21 18:02:00,26.0,23.0,-100.00,NW,308,3.0,6.0,88,-99.99,,,-99.99,,2013-01-22 02:02:00,
2013-01-21 18:12:00,26.0,23.0,-100.00,NW,308,3.0,6.0,88,-99.99,,,-99.99,,2013-01-22 02:12:00,
2013-01-21 18:53:00,25.0,22.0,-100.00,WNW,298,3.0,6.0,88,-99.99,,,-99.99,,2013-01-22 02:53:00,
2013-01-21 19:02:00,25.0,22.0,-100.00,WNW,298,3.0,6.0,88,-99.99,,,-99.99,,2013-01-22 03:02:00,
2013-01-21 19:12:00,25.0,22.0,-100.00,WNW,298,3.0,6.0,88,-99.99,,,-99.99,,2013-01-22 03:12:00,
2013-01-21 20:02:00,25.0,22.0,-100.00,North,9,3.0,8.0,88,-99.99,,,-99.99,,2013-01-22 04:02:00,
2013-01-21 20:12:00,25.0,22.0,-100.00,North,9,3.0,8.0,88,-99.99,,,-99.99,,2013-01-22 04:12:00,
2013-01-21 20:52:00,25.0,22.0,-100.00,NE,35,5.0,6.0,88,-99.99,,,-99.99,,2013-01-22 04:52:00,
2013-01-21 21:03:00,25.0,22.0,-100.00,NE,35,5.0,6.0,88,-99.99,,,-99.99,,2013-01-22 05:03:00,
2013-01-21 21:12:00,25.0,22.0,-100.00,NE,35,5.0,6.0,88,-99.99,,,-99.99,,2013-01-22 05:12:00,
2013-01-21 22:02:00,24.0,22.0,-100.00,NE,39,3.0,6.0,91,-99.99,,,-99.99,,2013-01-22 06:02:00,
2013-01-21 22:12:00,24.0,22.0,-100.00,NE,39,3.0,6.0,91,-99.99,,,-99.99,,2013-01-22 06:12:00,
2013-01-21 22:53:00,24.0,22.0,-100.00,NE,47,2.0,3.0,91,-99.99,,,-99.99,,2013-01-22 06:53:00,
2013-01-21 23:02:00,24.0,22.0,-100.00,NE,47,2.0,3.0,91,-99.99,,,-99.99,,2013-01-22 07:02:00,
2013-01-21 23:12:00,24.0,22.0,-100.00,NE,47,2.0,3.0,91,-99.99,,,-99.99,,2013-01-22 07:12:00,